This is the latest recevied weather packets stored in our database for station/object WW6Q. If no packets are shown the sender has not sent any weather packets the latest 10 day(s).
| Time | Temp. | Humidity | Pressure | Rain* | Wind** | Luminosity | Snow |
|---|---|---|---|---|---|---|---|
| 1788353492 | 27.22° C | 75% | 1015.6 hPa | 0 mm | - | 122 W/m² | - |
| 1788353189 | 27.78° C | 75% | 1015.9 hPa | 0 mm | - | 117 W/m² | - |
| 1788352888 | 27.22° C | 76% | 1015.8 hPa | 0 mm | - | 105 W/m² | - |
| 1788352585 | 26.67° C | 77% | 1015.7 hPa | 0 mm | - | 102 W/m² | - |
| 1788352285 | 27.22° C | 76% | 1015.8 hPa | 0 mm | - | 90 W/m² | - |
| 1788351985 | 27.22° C | 77% | 1015.6 hPa | 0 mm | - | 85 W/m² | - |
| 1788351680 | 26.67° C | 78% | 1015.8 hPa | 0 mm | - | 77 W/m² | - |
| 1788351380 | 26.11° C | 78% | 1015.8 hPa | 0 mm | - | 71 W/m² | - |
| 1788351075 | 25.56° C | 81% | 1015.7 hPa | 0 mm | - | 64 W/m² | - |
| 1788350772 | 25.56° C | 83% | 1015.7 hPa | 0 mm | - | 55 W/m² | - |
| 1788350477 | 25° C | 84% | 1015.6 hPa | 0 mm | - | 48 W/m² | - |
| 1788350162 | 24.44° C | 85% | 1015.7 hPa | 0 mm | - | 41 W/m² | - |
| 1788349858 | 23.89° C | 88% | 1015.6 hPa | 0 mm | - | 36 W/m² | - |
| 1788349554 | 23.89° C | 89% | 1015.7 hPa | 0 mm | - | 31 W/m² | - |
| 1788349254 | 23.33° C | 90% | 1015.4 hPa | 0 mm | - | 25 W/m² | - |
| 1788348949 | 23.33° C | 90% | 1015.6 hPa | 0 mm | - | 22 W/m² | - |
| 1788348644 | 23.33° C | 91% | 1015.6 hPa | 0 mm | - | 17 W/m² | - |
| 1788348340 | 23.33° C | 91% | 1015.7 hPa | 0 mm | - | 12 W/m² | - |
| 1788348037 | 23.33° C | 91% | 1015.7 hPa | 0 mm | - | 8 W/m² | - |
| 1788347732 | 23.89° C | 91% | 1015.5 hPa | 0 mm | - | 5 W/m² | - |
| 1788347428 | 23.89° C | 91% | 1015.9 hPa | 0 mm | - | 3 W/m² | - |
| 1788347124 | 23.89° C | 90% | 1015.6 hPa | 0 mm | - | 2 W/m² | - |
| 1788346819 | 23.89° C | 90% | 1015.8 hPa | 0 mm | - | 1 W/m² | - |
| 1788346514 | 23.89° C | 89% | 1015.6 hPa | 0 mm | - | 0 W/m² | - |
| 1788346214 | 24.44° C | 88% | 1015.6 hPa | 0 mm | - | 0 W/m² | - |
* Rain latest hour (hover to see other rain measurements)
** Current wind speed in m/s (hover to see current wind gust speed)